Time,TemperatureF,DewpointF,PressureIn,WindDirection,WindDirectionDegrees,WindSpeedMPH,WindSpeedGustMPH,Humidity,HourlyPrecipIn,Conditions,Clouds,dailyrainin,SoftwareType,DateUTC
2013-06-07 00:00:00,78.0,-99.9,29.88,North,-999,-999.0,-999.0,-999,-99.99,,,-99.99,,2013-06-07 05:00:00,
2013-06-07 00:32:00,78.0,-99.9,29.88,North,-999,-999.0,-999.0,-999,-99.99,,,-99.99,,2013-06-07 05:32:00,
2013-06-07 00:43:00,78.0,-99.9,29.88,North,-999,-999.0,-999.0,-999,-99.99,,,-99.99,,2013-06-07 05:43:00,
2013-06-07 00:52:00,78.0,-99.9,29.88,North,-999,-999.0,-999.0,-999,-99.99,,,-99.99,,2013-06-07 05:52:00,
2013-06-07 01:00:00,78.0,-99.9,29.87,North,-999,-999.0,-999.0,-999,-99.99,,,-99.99,,2013-06-07 06:00:00,
2013-06-07 01:32:00,78.0,-99.9,29.87,North,-999,-999.0,-999.0,-999,-99.99,,,-99.99,,2013-06-07 06:32:00,
2013-06-07 01:43:00,78.0,-99.9,29.87,North,-999,-999.0,-999.0,-999,-99.99,,,-99.99,,2013-06-07 06:43:00,
2013-06-07 01:52:00,78.0,-99.9,29.87,North,-999,-999.0,-999.0,-999,-99.99,,,-99.99,,2013-06-07 06:52:00,
2013-06-07 02:00:00,80.0,-99.9,29.86,North,-999,-999.0,-999.0,-999,-99.99,,,-99.99,,2013-06-07 07:00:00,
2013-06-07 02:22:00,80.0,-99.9,29.86,North,-999,-999.0,-999.0,-999,-99.99,,,-99.99,,2013-06-07 07:22:00,
2013-06-07 02:32:00,80.0,-99.9,29.86,North,-999,-999.0,-999.0,-999,-99.99,,,-99.99,,2013-06-07 07:32:00,
2013-06-07 02:42:00,80.0,-99.9,29.86,North,-999,-999.0,-999.0,-999,-99.99,,,-99.99,,2013-06-07 07:42:00,
2013-06-07 02:52:00,80.0,-99.9,29.86,North,-999,-999.0,-999.0,-999,-99.99,,,-99.99,,2013-06-07 07:52:00,
2013-06-07 03:00:00,79.0,-99.9,29.86,North,-999,-999.0,-999.0,-999,-99.99,,,-99.99,,2013-06-07 08:00:00,
2013-06-07 03:32:00,79.0,-99.9,29.86,North,-999,-999.0,-999.0,-999,-99.99,,,-99.99,,2013-06-07 08:32:00,
2013-06-07 03:43:00,79.0,-99.9,29.86,North,-999,-999.0,-999.0,-999,-99.99,,,-99.99,,2013-06-07 08:43:00,
2013-06-07 03:52:00,79.0,-99.9,29.86,North,-999,-999.0,-999.0,-999,-99.99,,,-99.99,,2013-06-07 08:52:00,
2013-06-07 04:00:00,78.0,-99.9,29.86,North,-999,-999.0,-999.0,-999,-99.99,,,-99.99,,2013-06-07 09:00:00,
2013-06-07 04:33:00,78.0,-99.9,29.86,North,-999,-999.0,-999.0,-999,-99.99,,,-99.99,,2013-06-07 09:33:00,
2013-06-07 04:43:00,78.0,-99.9,29.86,North,-999,-999.0,-999.0,-999,-99.99,,,-99.99,,2013-06-07 09:43:00,
2013-06-07 04:53:00,78.0,-99.9,29.86,North,-999,-999.0,-999.0,-999,-99.99,,,-99.99,,2013-06-07 09:53:00,
2013-06-07 05:00:00,76.0,-99.9,29.87,North,-999,-999.0,-999.0,-999,-99.99,,,-99.99,,2013-06-07 10:00:00,
2013-06-07 05:33:00,76.0,-99.9,29.87,North,-999,-999.0,-999.0,-999,-99.99,,,-99.99,,2013-06-07 10:33:00,
2013-06-07 05:43:00,76.0,-99.9,29.87,North,-999,-999.0,-999.0,-999,-99.99,,,-99.99,,2013-06-07 10:43:00,
2013-06-07 05:53:00,76.0,-99.9,29.87,North,-999,-999.0,-999.0,-999,-99.99,,,-99.99,,2013-06-07 10:53:00,
2013-06-07 06:00:00,76.0,-99.9,29.87,North,-999,-999.0,-999.0,-999,-99.99,,,-99.99,,2013-06-07 11:00:00,
2013-06-07 06:32:00,76.0,-99.9,29.87,North,-999,-999.0,-999.0,-999,-99.99,,,-99.99,,2013-06-07 11:32:00,
2013-06-07 06:42:00,76.0,-99.9,29.87,North,-999,-999.0,-999.0,-999,-99.99,,,-99.99,,2013-06-07 11:42:00,
2013-06-07 06:53:00,76.0,-99.9,29.87,North,-999,-999.0,-999.0,-999,-99.99,,,-99.99,,2013-06-07 11:53:00,
2013-06-07 07:00:00,76.0,-99.9,29.90,North,-999,-999.0,-999.0,-999,-99.99,,,-99.99,,2013-06-07 12:00:00,
2013-06-07 07:33:00,76.0,-99.9,29.90,North,-999,-999.0,-999.0,-999,-99.99,,,-99.99,,2013-06-07 12:33:00,
2013-06-07 07:42:00,76.0,-99.9,29.90,North,-999,-999.0,-999.0,-999,-99.99,,,-99.99,,2013-06-07 12:42:00,
2013-06-07 07:52:00,76.0,-99.9,29.90,North,-999,-999.0,-999.0,-999,-99.99,,,-99.99,,2013-06-07 12:52:00,
2013-06-07 08:00:00,75.0,-99.9,29.90,North,-999,-999.0,-999.0,-999,-99.99,,,-99.99,,2013-06-07 13:00:00,
2013-06-07 08:33:00,75.0,-99.9,29.90,North,-999,-999.0,-999.0,-999,-99.99,,,-99.99,,2013-06-07 13:33:00,
2013-06-07 08:43:00,75.0,-99.9,29.90,North,-999,-999.0,-999.0,-999,-99.99,,,-99.99,,2013-06-07 13:43:00,
2013-06-07 08:52:00,75.0,-99.9,29.90,North,-999,-999.0,-999.0,-999,-99.99,,,-99.99,,2013-06-07 13:52:00,
2013-06-07 09:00:00,75.0,-99.9,29.91,North,-999,-999.0,-999.0,-999,-99.99,,,-99.99,,2013-06-07 14:00:00,
2013-06-07 09:33:00,75.0,-99.9,29.91,North,-999,-999.0,-999.0,-999,-99.99,,,-99.99,,2013-06-07 14:33:00,
2013-06-07 09:42:00,75.0,-99.9,29.91,North,-999,-999.0,-999.0,-999,-99.99,,,-99.99,,2013-06-07 14:42:00,
2013-06-07 09:52:00,75.0,-99.9,29.91,North,-999,-999.0,-999.0,-999,-99.99,,,-99.99,,2013-06-07 14:52:00,
2013-06-07 10:00:00,76.0,-99.9,29.91,North,-999,-999.0,-999.0,-999,-99.99,,,-99.99,,2013-06-07 15:00:00,
2013-06-07 10:33:00,76.0,-99.9,29.91,North,-999,-999.0,-999.0,-999,-99.99,,,-99.99,,2013-06-07 15:33:00,
2013-06-07 10:43:00,76.0,-99.9,29.91,North,-999,-999.0,-999.0,-999,-99.99,,,-99.99,,2013-06-07 15:43:00,
2013-06-07 10:53:00,76.0,-99.9,29.91,North,-999,-999.0,-999.0,-999,-99.99,,,-99.99,,2013-06-07 15:53:00,
2013-06-07 11:00:00,77.0,-99.9,29.93,North,-999,-999.0,-999.0,-999,-99.99,,,-99.99,,2013-06-07 16:00:00,
2013-06-07 11:33:00,77.0,-99.9,29.93,North,-999,-999.0,-999.0,-999,-99.99,,,-99.99,,2013-06-07 16:33:00,
2013-06-07 11:43:00,77.0,-99.9,29.93,North,-999,-999.0,-999.0,-999,-99.99,,,-99.99,,2013-06-07 16:43:00,
2013-06-07 11:53:00,77.0,-99.9,29.93,North,-999,-999.0,-999.0,-999,-99.99,,,-99.99,,2013-06-07 16:53:00,
2013-06-07 12:00:00,78.0,-99.9,29.93,North,-999,-999.0,-999.0,-999,-99.99,,,-99.99,,2013-06-07 17:00:00,
2013-06-07 12:32:00,78.0,-99.9,29.93,North,-999,-999.0,-999.0,-999,-99.99,,,-99.99,,2013-06-07 17:32:00,
2013-06-07 12:43:00,78.0,-99.9,29.93,North,-999,-999.0,-999.0,-999,-99.99,,,-99.99,,2013-06-07 17:43:00,
2013-06-07 12:53:00,78.0,-99.9,29.93,North,-999,-999.0,-999.0,-999,-99.99,,,-99.99,,2013-06-07 17:53:00,
2013-06-07 13:00:00,80.0,-99.9,29.92,North,-999,-999.0,-999.0,-999,-99.99,,,-99.99,,2013-06-07 18:00:00,
2013-06-07 13:38:00,80.0,-99.9,29.92,North,-999,-999.0,-999.0,-999,-99.99,,,-99.99,,2013-06-07 18:38:00,
2013-06-07 14:41:00,80.0,-99.9,29.91,North,-999,-999.0,-999.0,-999,-99.99,,,-99.99,,2013-06-07 19:41:00,
2013-06-07 15:00:00,82.0,-99.9,29.90,North,-999,-999.0,-999.0,-999,-99.99,,,-99.99,,2013-06-07 20:00:00,
2013-06-07 15:52:00,82.0,-99.9,29.90,North,-999,-999.0,-999.0,-999,-99.99,,,-99.99,,2013-06-07 20:52:00,
2013-06-07 15:59:00,82.0,-99.9,29.90,North,-999,-999.0,-999.0,-999,-99.99,,,-99.99,,2013-06-07 20:59:00,
2013-06-07 16:00:00,83.0,-99.9,29.88,North,-999,-999.0,-999.0,-999,-99.99,,,-99.99,,2013-06-07 21:00:00,
2013-06-07 16:43:00,83.0,-99.9,29.88,North,-999,-999.0,-999.0,-999,-99.99,,,-99.99,,2013-06-07 21:43:00,
2013-06-07 17:00:00,84.0,-99.9,29.88,North,-999,-999.0,-999.0,-999,-99.99,,,-99.99,,2013-06-07 22:00:00,
2013-06-07 17:39:00,84.0,-99.9,29.88,North,-999,-999.0,-999.0,-999,-99.99,,,-99.99,,2013-06-07 22:39:00,
2013-06-07 17:49:00,84.0,-99.9,29.88,North,-999,-999.0,-999.0,-999,-99.99,,,-99.99,,2013-06-07 22:49:00,
2013-06-07 18:00:00,84.0,-99.9,29.85,North,-999,-999.0,-999.0,-999,-99.99,,,-99.99,,2013-06-07 23:00:00,
2013-06-07 18:42:00,84.0,-99.9,29.85,North,-999,-999.0,-999.0,-999,-99.99,,,-99.99,,2013-06-07 23:42:00,
2013-06-07 18:56:00,84.0,-99.9,29.85,North,-999,-999.0,-999.0,-999,-99.99,,,-99.99,,2013-06-07 23:56:00,
2013-06-07 19:00:00,82.0,-99.9,29.87,North,-999,-999.0,-999.0,-999,-99.99,,,-99.99,,2013-06-08 00:00:00,
2013-06-07 19:37:00,82.0,-99.9,29.87,North,-999,-999.0,-999.0,-999,-99.99,,,-99.99,,2013-06-08 00:37:00,
2013-06-07 19:49:00,82.0,-99.9,29.87,North,-999,-999.0,-999.0,-999,-99.99,,,-99.99,,2013-06-08 00:49:00,
2013-06-07 20:00:00,71.0,-99.9,29.91,North,-999,-999.0,-999.0,-999,-99.99,,,-99.99,,2013-06-08 01:00:00,
2013-06-07 20:40:00,71.0,-99.9,29.91,North,-999,-999.0,-999.0,-999,-99.99,,,-99.99,,2013-06-08 01:40:00,
2013-06-07 20:50:00,71.0,-99.9,29.91,North,-999,-999.0,-999.0,-999,-99.99,,,-99.99,,2013-06-08 01:50:00,
2013-06-07 21:00:00,75.0,-99.9,29.87,North,-999,-999.0,-999.0,-999,-99.99,,,-99.99,,2013-06-08 02:00:00,
2013-06-07 21:37:00,75.0,-99.9,29.87,North,-999,-999.0,-999.0,-999,-99.99,,,-99.99,,2013-06-08 02:37:00,
2013-06-07 21:49:00,75.0,-99.9,29.87,North,-999,-999.0,-999.0,-999,-99.99,,,-99.99,,2013-06-08 02:49:00,
2013-06-07 22:00:00,81.0,-99.9,29.82,North,-999,-999.0,-999.0,-999,-99.99,,,-99.99,,2013-06-08 03:00:00,
2013-06-07 22:40:00,81.0,-99.9,29.82,North,-999,-999.0,-999.0,-999,-99.99,,,-99.99,,2013-06-08 03:40:00,
2013-06-07 22:54:00,81.0,-99.9,29.82,North,-999,-999.0,-999.0,-999,-99.99,,,-99.99,,2013-06-08 03:54:00,
2013-06-07 23:00:00,80.0,-99.9,29.85,North,-999,-999.0,-999.0,-999,-99.99,,,-99.99,,2013-06-08 04:00:00,
2013-06-07 23:23:00,80.0,-99.9,29.85,North,-999,-999.0,-999.0,-999,-99.99,,,-99.99,,2013-06-08 04:23:00,
2013-06-07 23:33:00,80.0,-99.9,29.85,North,-999,-999.0,-999.0,-999,-99.99,,,-99.99,,2013-06-08 04:33:00,
2013-06-07 23:42:00,80.0,-99.9,29.85,North,-999,-999.0,-999.0,-999,-99.99,,,-99.99,,2013-06-08 04:42:00,
2013-06-07 23:53:00,80.0,-99.9,29.85,North,-999,-999.0,-999.0,-999,-99.99,,,-99.99,,2013-06-08 04:53:00,